Theta_e
313 312 308 306 305 304 304 304 304 305 308 310 313 314 314 310 308 313 314 312 311 317 318 318 321 320 319 322 320 318 327 325 322 321 321 319 318 317 317 319 317 320 328 329 338
313 312 307 305 303 302 301 302 302 303 303 305 309 313 315 310 314 317 312 311 314 320 317 319 320 318 321 322 320 323 326 325 319 318 319 318 317 318 319 319 319 318 322 325 341
314 313 310 307 303 304 302 300 300 301 302 304 306 311 315 310 312 308 319 311 315 320 318 318 318 319 321 321 321 318 325 318 318 321 319 319 319 317 319 320 319 319 319 331 341
312 312 313 311 306 306 306 307 306 306 310 311 312 312 315 314 308 317 319 313 315 319 319 317 317 319 320 322 320 322 320 318 320 320 320 320 319 319 317 321 318 318 317 329 337
313 310 308 305 304 305 306 308 309 312 313 311 311 313 312 310 311 310 314 313 321 319 318 317 318 317 319 317 318 321 320 319 319 319 318 318 319 320 319 318 316 315 316 324 330
306 306 305 304 304 303 308 311 311 311 311 312 312 313 312 309 309 311 317 317 320 319 318 316 317 316 316 317 319 318 318 317 317 318 317 319 319 318 319 317 317 317 318 318 323
307 306 305 304 305 305 304 310 311 311 312 313 312 315 316 312 311 320 323 324 326 319 319 317 316 317 316 316 315 316 318 316 316 317 318 317 320 319 318 317 318 317 318 318 318
310 305 304 304 305 304 304 307 311 315 313 312 314 316 311 311 311 311 316 327 325 319 318 319 317 315 315 314 314 316 314 318 315 317 317 318 321 318 315 316 318 318 317 317 317
306 303 304 304 304 304 304 306 314 318 315 314 315 313 311 311 314 314 313 322 322 320 318 316 315 315 315 317 317 313 315 314 315 315 318 318 320 318 314 316 317 317 316 316 316
305 302 301 301 303 303 302 309 313 313 313 320 319 314 311 312 314 314 317 319 317 317 318 316 315 317 314 316 320 317 316 314 315 315 316 318 319 318 318 316 317 317 316 315 315
302 300 300 299 303 302 301 305 302 305 302 310 313 314 314 313 313 313 320 316 315 316 318 316 320 321 320 315 314 312 314 316 316 315 316 317 318 318 317 316 316 316 315 314 314
300 300 300 299 302 303 302 302 302 301 303 303 304 305 306 308 312 312 318 318 317 317 316 318 321 319 316 315 316 316 318 318 316 316 317 318 319 319 318 318 318 318 316 315 313
302 302 301 299 303 303 303 303 303 302 302 306 309 312 314 311 312 311 317 316 319 317 318 318 319 318 318 318 318 318 318 317 317 317 317 315 317 315 314 312 312 312 312 312 313
303 300 300 299 302 303 302 301 303 302 308 307 312 315 314 313 314 312 313 317 318 320 317 318 317 319 319 320 319 321 318 319 319 320 322 314 324 317 317 314 312 312 314 312 312
300 300 300 300 301 303 302 301 304 304 308 307 315 314 312 312 312 313 312 316 318 318 320 321 319 320 321 320 318 320 318 319 320 320 317 317 318 316 313 316 315 316 316 317 317
300 300 300 300 301 303 301 302 306 301 304 306 311 308 304 307 311 312 314 314 316 319 318 318 316 319 320 319 318 318 317 316 315 315 319 318 319 319 317 315 315 317 318 318 319
299 299 300 300 301 303 302 305 300 301 305 307 306 303 303 306 309 311 314 316 318 321 319 319 320 317 318 319 318 319 318 325 323 323 322 314 316 319 316 315 312 314 319 318 320
297 299 301 302 302 303 302 306 299 301 305 301 300 302 304 304 305 304 311 314 313 314 317 319 319 320 317 319 320 320 320 326 328 325 325 315 321 320 315 316 317 317 317 319 320
297 301 302 303 303 303 296 298 298 304 303 303 300 300 303 301 300 301 303 312 313 309 317 319 319 316 317 319 318 318 321 318 318 315 320 321 317 317 316 316 320 318 319 321 320
299 300 300 302 304 302 297 300 298 303 303 303 299 302 301 302 300 300 300 309 312 308 305 312 316 315 316 317 317 317 316 321 319 327 325 320 317 320 317 317 315 321 321 320 320
298 298 300 301 303 299 300 300 302 302 301 303 303 303 302 301 300 301 301 301 303 303 308 308 311 316 315 318 318 317 318 318 317 319 322 320 318 313 316 314 314 317 320 320 320
295 296 298 298 298 296 299 301 301 301 298 298 302 302 302 301 302 301 301 300 302 302 307 311 308 312 317 314 313 317 319 319 323 321 315 317 319 313 316 319 320 320 320 319 320
297 296 298 296 290 291 295 298 298 298 298 299 299 299 299 300 300 302 303 301 302 303 305 305 311 312 317 316 316 316 313 313 316 314 319 320 319 313 318 321 321 321 320 319 320
293 294 292 295 295 295 296 294 296 297 295 297 299 298 298 300 300 301 301 301 300 300 304 306 309 311 311 312 312 314 312 311 310 317 318 317 317 314 313 315 320 321 320 320 320
293 292 293 294 295 295 294 294 294 294 296 296 295 297 299 301 300 299 298 299 300 300 300 304 306 306 307 309 312 310 309 310 311 309 313 314 311 310 311 313 312 318 320 319 319
291 290 291 287 288 292 293 290 294 294 295 296 297 297 297 299 299 299 298 298 300 300 300 301 304 305 306 306 306 308 309 309 308 307 307 308 308 309 311 310 312 315 319 320 319
292 293 290 290 290 291 292 293 294 294 294 295 295 296 297 297 296 297 297 298 299 300 300 301 302 305 305 304 302 303 304 306 307 306 305 308 310 309 310 313 312 312 317 319 320
Wind_Speed
16 16 17 18 18 19 19 19 19 18 17 17 17 18 19 22 22 12 7 8 5 11 12 13 7 5 3 2 3 4 2 2 4 5 3 2 1 1 2 4 2 4 4 1 11
17 18 19 20 20 21 22 21 20 19 17 17 17 17 18 20 19 10 10 8 6 17 14 14 5 5 2 2 1 2 3 6 3 2 2 2 1 1 2 0 2 2 2 2 13
18 19 21 22 23 25 25 23 20 18 17 17 15 15 16 15 5 5 2 10 12 18 10 10 11 4 3 2 4 3 4 4 4 5 3 3 3 2 2 4 6 5 6 7 11
19 19 21 23 26 28 25 24 21 19 16 15 14 12 14 6 4 0 7 13 17 18 15 10 3 4 3 4 4 3 6 4 4 1 2 3 3 4 6 8 5 9 2 9 13
18 19 21 24 28 25 26 25 23 20 19 18 15 9 3 2 8 6 5 18 18 17 14 5 5 3 4 3 4 4 4 4 7 7 5 4 9 9 8 10 7 5 5 11 14
19 21 24 26 29 25 25 25 24 22 22 18 14 7 3 3 4 5 4 18 17 18 10 8 6 5 2 2 4 4 4 6 6 7 4 6 7 7 7 9 11 7 9 11 14
20 23 26 29 32 26 28 28 23 20 13 10 7 5 2 12 5 1 9 15 16 19 5 8 7 4 5 2 3 2 5 6 7 3 6 6 9 10 10 5 9 10 10 9 13
22 25 27 29 31 25 28 29 19 12 9 5 4 5 7 3 4 10 9 7 11 14 2 10 5 4 2 4 4 4 1 3 2 4 2 7 8 9 4 8 13 11 11 12 13
22 24 27 30 31 26 28 26 5 6 7 6 3 3 8 3 4 4 10 7 10 10 7 5 5 2 3 3 2 2 5 4 7 2 2 5 5 5 1 3 10 10 12 11 11
23 25 28 32 28 29 29 11 4 4 2 1 1 2 5 1 3 3 7 10 3 6 2 3 3 2 3 4 7 4 5 4 6 0 2 3 14 13 17 9 14 13 11 12 14
21 23 26 28 20 26 29 4 8 4 7 3 2 5 5 11 2 2 2 5 4 3 6 3 4 12 18 6 4 2 3 5 3 4 5 13 15 15 13 9 13 14 14 14 15
17 20 23 24 9 19 31 9 2 5 10 5 8 8 13 7 5 4 9 6 4 5 5 1 14 10 5 7 6 6 11 14 7 7 5 9 17 17 17 14 16 17 15 15 9
18 22 25 24 7 16 18 12 17 6 2 8 4 4 2 7 5 6 9 4 5 7 11 13 5 9 11 6 8 8 11 7 11 4 5 6 8 5 5 4 6 10 9 9 14
15 18 21 18 2 11 4 21 14 9 4 6 4 2 3 2 4 5 9 6 4 11 5 8 8 4 6 9 11 12 10 13 10 6 5 1 6 4 8 9 7 10 7 6 5
13 15 16 12 6 2 10 20 3 3 5 3 1 2 1 1 6 3 3 1 5 6 6 8 6 11 16 14 10 6 4 8 5 5 2 3 4 6 3 6 3 6 3 1 4
12 12 13 8 8 3 17 13 4 4 6 5 3 5 6 5 4 4 2 3 3 5 5 10 4 7 11 9 13 4 1 3 2 1 5 7 7 3 3 3 3 1 0 4 8
10 8 8 8 7 18 13 1 3 3 6 6 4 6 3 4 6 4 1 4 4 3 10 7 15 4 5 5 2 5 3 2 2 3 5 0 2 8 5 8 6 5 2 6 11
9 7 6 9 12 10 5 3 3 1 2 4 7 9 5 10 5 7 4 3 2 4 1 6 7 17 11 16 9 9 6 4 8 7 4 1 5 5 5 5 3 4 4 11 12
4 5 5 12 9 6 4 2 1 5 5 11 8 6 3 7 6 10 6 5 5 14 3 4 6 3 6 15 16 6 9 11 2 1 1 3 5 9 4 5 1 0 8 12 12
2 3 7 11 10 6 4 2 3 5 4 4 3 5 5 10 8 11 4 4 5 11 12 4 8 5 4 4 7 12 8 3 1 6 8 2 3 6 6 9 4 3 8 10 10
4 3 5 5 5 4 3 2 1 5 8 6 3 5 3 5 2 3 6 11 8 13 12 6 1 9 6 5 11 4 9 5 2 7 9 4 4 4 6 6 8 1 8 12 11
4 3 7 6 4 1 3 2 3 3 3 3 4 8 8 6 5 7 7 5 14 11 12 5 4 6 7 5 7 5 10 18 6 6 3 3 6 3 4 5 3 6 8 10 11
3 2 4 4 3 1 1 2 0 1 2 3 4 5 5 4 6 7 5 6 11 7 6 9 3 4 6 4 3 6 7 9 3 3 12 5 4 3 3 4 4 5 9 11 13
2 2 3 3 2 4 3 2 1 4 3 5 4 4 5 6 9 7 9 5 6 12 16 10 5 5 6 9 3 6 8 4 6 5 7 8 7 4 8 10 5 2 7 10 13
2 2 2 3 2 4 4 1 1 3 3 3 4 8 6 5 6 8 6 6 6 14 4 3 10 11 13 14 4 5 12 7 7 5 4 2 8 14 13 10 10 6 7 10 12
4 4 2 3 3 5 2 4 6 3 4 5 7 12 12 12 8 17 15 6 6 2 2 3 4 11 15 14 14 14 16 14 13 16 11 11 16 9 11 3 5 8 5 9 12
3 3 4 5 5 5 5 6 10 6 8 12 13 9 13 18 13 10 9 9 8 8 10 5 3 4 8 9 6 9 15 17 12 11 10 11 12 16 11 8 7 8 8 11 12
Wind_Direction
9 5 360 353 348 343 336 331 328 327 325 324 325 328 331 328 321 309 245 237 216 180 164 154 147 134 106 87 103 133 94 223 245 173 240 317 293 279 307 148 216 178 156 229 162
6 0 355 351 346 341 335 330 325 322 321 322 321 324 328 327 319 267 280 221 186 173 163 157 147 135 87 103 37 104 161 215 222 234 270 305 233 235 269 233 225 239 184 200 161
1 357 354 350 347 341 336 334 328 323 322 321 317 318 326 328 306 251 334 188 181 174 174 164 147 119 128 141 175 168 215 207 244 236 253 294 297 213 193 236 228 206 189 174 177
358 355 351 349 346 340 339 338 333 327 322 320 315 317 327 321 299 18 329 179 171 171 149 131 101 124 148 190 174 199 235 223 269 234 344 295 308 276 205 241 227 232 165 178 187
355 353 350 351 350 350 345 339 329 321 317 312 305 311 351 355 254 301 319 171 172 172 163 140 136 135 193 191 148 211 248 221 252 279 252 268 250 249 248 259 263 256 206 199 201
354 351 348 349 348 346 344 336 325 318 315 306 289 287 152 232 226 283 193 176 184 179 172 156 176 168 166 239 184 208 229 266 268 246 238 235 251 160 240 250 242 221 226 219 209
350 349 348 349 347 341 340 333 325 316 316 310 269 200 175 241 210 162 178 192 196 187 150 189 161 145 134 280 279 269 289 305 237 230 235 189 259 229 237 207 225 220 228 230 223
348 349 349 348 345 343 342 335 329 333 338 339 152 156 247 267 292 253 216 197 201 195 95 198 176 91 120 145 8 323 339 292 262 153 218 183 270 271 270 219 238 238 234 230 235
345 348 348 350 347 343 342 332 339 358 31 79 118 165 268 306 291 293 213 180 175 187 206 106 115 122 77 154 329 0 274 252 310 215 119 194 276 270 117 211 267 247 241 246 248
345 346 349 353 355 355 349 342 344 322 331 354 86 343 270 28 343 327 196 170 139 119 101 112 71 153 152 160 227 203 237 256 264 172 41 260 265 265 285 270 267 265 246 232 232
343 346 351 354 3 10 9 38 14 346 17 253 235 266 338 333 320 37 138 155 99 99 173 193 188 210 211 180 179 148 215 255 247 250 311 279 273 275 269 266 260 255 248 233 226
341 346 351 355 356 15 39 75 90 272 310 253 257 268 276 260 301 284 157 163 160 189 126 131 233 227 159 187 202 209 252 261 283 266 200 282 280 279 264 255 249 250 243 235 214
342 348 352 353 9 15 54 49 352 181 250 298 215 226 244 155 220 251 170 156 171 165 193 208 209 186 194 197 211 225 236 246 255 310 249 291 271 270 270 243 275 257 258 248 219
341 351 353 360 41 359 53 349 348 168 31 286 323 298 130 205 265 222 208 152 200 213 142 240 225 188 174 220 208 242 213 235 248 280 255 338 292 266 268 296 279 279 241 249 206
334 348 353 8 337 51 326 338 46 174 346 334 66 188 113 259 292 357 213 146 191 171 153 226 180 203 231 229 176 232 190 206 228 216 313 214 254 273 288 300 320 337 242 193 165
333 345 347 350 339 315 332 338 144 40 250 345 46 17 17 326 307 347 42 316 213 196 240 235 212 185 198 218 182 114 152 64 66 136 249 217 208 262 247 221 281 339 182 162 145
338 351 354 349 340 324 326 320 43 169 341 355 343 358 318 304 321 359 243 210 222 199 234 235 225 182 164 130 121 170 143 224 251 230 251 155 194 249 260 275 247 294 192 162 151
343 12 65 25 345 350 330 60 189 255 337 19 345 317 326 12 10 335 282 265 293 304 259 216 271 195 190 200 166 173 196 176 233 225 247 108 230 247 206 233 260 277 180 155 157
357 77 43 9 5 2 73 90 291 16 341 346 330 333 26 8 356 1 355 349 41 28 305 296 253 233 228 206 162 172 196 231 283 76 269 215 271 289 209 281 288 55 153 163 161
117 74 21 2 359 352 73 195 98 44 16 356 5 43 333 352 353 16 319 7 356 24 358 330 294 254 267 140 208 196 139 120 226 229 244 239 260 240 9 299 358 167 168 163 160
90 67 348 0 24 40 117 219 345 98 53 3 330 303 282 317 323 318 275 322 17 352 337 315 26 299 322 216 176 145 195 162 226 236 241 246 252 212 187 317 316 315 161 163 163
100 89 353 13 52 70 132 211 352 308 64 253 252 251 254 253 259 250 238 232 6 346 323 27 272 261 261 264 324 253 205 188 166 210 237 220 230 143 299 353 24 105 144 159 164
116 133 13 47 127 277 298 262 198 337 351 359 277 272 300 298 299 247 251 323 323 348 337 348 304 329 280 232 68 8 18 350 195 162 221 195 224 167 128 62 27 124 153 163 169
88 95 1 43 96 130 134 338 325 359 273 250 276 284 288 279 242 272 294 300 307 295 304 301 241 236 247 295 246 288 329 339 331 221 225 232 242 248 12 359 340 227 178 181 186
22 189 171 150 182 116 83 352 342 314 267 293 284 247 268 279 317 260 267 294 304 296 304 280 257 278 278 278 175 233 272 271 278 272 239 316 314 290 306 299 292 272 196 182 191
143 133 47 140 84 90 178 228 203 229 215 254 243 281 300 277 260 297 290 282 257 307 319 345 283 269 268 275 269 256 239 243 247 267 247 257 280 257 267 286 280 262 227 218 206
138 106 106 164 131 126 203 203 202 193 235 238 261 289 285 270 284 277 255 259 243 259 270 268 239 290 256 243 258 262 242 237 233 232 228 226 234 271 283 283 275 284 217 228 218